Location: Kissimmee Park Observatory
(28.2088°N, 81.3686°W)
Time: 21:37:14
(UTC-05:00)

N. Korean satellite - Visible Passes

Search period start: 18 January 2022 00:00
Search period end: 28 January 2022 00:00
Orbit: 446 x 492 km, 97.3° (Epoch: 18 January)

Date Brightness Start Highest point End Pass type
(mag) Time Alt. Az. Time Alt. Az. Time Alt. Az.
18 Jan 9.4 04:52:44 17° ESE 04:52:44 17° ESE 04:54:22 10° SE visible
18 Jan 8.7 06:26:47 11° WSW 06:26:47 11° WSW 06:27:02 10° WSW visible
19 Jan 7.9 05:57:26 25° SW 05:57:26 25° SW 05:59:11 10° SSW visible
20 Jan 7.8 05:28:05 34° S 05:28:05 34° S 05:30:18 10° S visible
21 Jan 9.1 04:58:41 20° SE 04:58:41 20° SE 05:00:28 10° SSE visible
22 Jan 8.1 06:03:19 21° SW 06:03:19 21° SW 06:04:46 10° SW visible
23 Jan 7.7 05:33:52 34° S 05:33:52 34° S 05:36:00 10° S visible
24 Jan 8.8 05:04:24 22° SE 05:04:24 22° SE 05:06:19 10° SSE visible
24 Jan9.106:38:26WSW06:38:26WSW06:32:09NNWvisible
25 Jan 8.3 06:08:56 18° WSW 06:08:56 18° WSW 06:10:09 10° SW visible
26 Jan 7.6 05:39:25 33° SSW 05:39:25 33° SSW 05:41:30 10° SSW visible
27 Jan 8.5 05:09:51 26° SE 05:09:51 26° SE 05:11:56 10° SSE visible
